owner,sensor,date,latitude,longitude,sea_surface_height_above_sea_level,qcFlag 
TCOON,ioos:station:TCOON:009:1,2019-11-01T00:18:00Z,27.8398,-97.0727,1.845,11111222 
TCOON,ioos:station:TCOON:009:1,2019-11-01T01:18:00Z,27.8398,-97.0727,1.868,11111222 
TCOON,ioos:station:TCOON:009:1,2019-11-01T02:18:00Z,27.8398,-97.0727,1.857,11111222 
TCOON,ioos:station:TCOON:009:1,2019-11-01T03:18:00Z,27.8398,-97.0727,1.879,11111222 
TCOON,ioos:station:TCOON:009:1,2019-11-01T04:18:00Z,27.8398,-97.0727,1.911,11111222 
TCOON,ioos:station:TCOON:009:1,2019-11-01T05:18:00Z,27.8398,-97.0727,1.881,11111222 
TCOON,ioos:station:TCOON:009:1,2019-11-01T06:18:00Z,27.8398,-97.0727,1.882,11111222 
TCOON,ioos:station:TCOON:009:1,2019-11-01T07:18:00Z,27.8398,-97.0727,1.855,11111222 
TCOON,ioos:station:TCOON:009:1,2019-11-01T08:18:00Z,27.8398,-97.0727,1.864,11111222 
TCOON,ioos:station:TCOON:009:1,2019-11-01T09:18:00Z,27.8398,-97.0727,1.873,11111222 
TCOON,ioos:station:TCOON:009:1,2019-11-01T10:18:00Z,27.8398,-97.0727,1.851,11111222 
TCOON,ioos:station:TCOON:009:1,2019-11-01T11:18:00Z,27.8398,-97.0727,1.824,11111222 
TCOON,ioos:station:TCOON:009:1,2019-11-01T12:18:00Z,27.8398,-97.0727,1.755,11111222 
TCOON,ioos:station:TCOON:009:1,2019-11-01T13:18:00Z,27.8398,-97.0727,1.686,11111222 
TCOON,ioos:station:TCOON:009:1,2019-11-01T14:18:00Z,27.8398,-97.0727,1.639,11111222 
TCOON,ioos:station:TCOON:009:1,2019-11-01T15:18:00Z,27.8398,-97.0727,1.601,11111222 
TCOON,ioos:station:TCOON:009:1,2019-11-01T16:18:00Z,27.8398,-97.0727,1.564,11111222 
TCOON,ioos:station:TCOON:009:1,2019-11-01T17:18:00Z,27.8398,-97.0727,1.562,11111222 
TCOON,ioos:station:TCOON:009:1,2019-11-01T18:18:00Z,27.8398,-97.0727,1.572,11111222 
TCOON,ioos:station:TCOON:009:1,2019-11-01T19:18:00Z,27.8398,-97.0727,1.591,11111222 
TCOON,ioos:station:TCOON:009:1,2019-11-01T20:18:00Z,27.8398,-97.0727,1.664,11111222 
TCOON,ioos:station:TCOON:009:1,2019-11-01T21:18:00Z,27.8398,-97.0727,1.76,11111222 
TCOON,ioos:station:TCOON:009:1,2019-11-01T22:18:00Z,27.8398,-97.0727,1.825,11111222 
TCOON,ioos:station:TCOON:009:1,2019-11-01T23:18:00Z,27.8398,-97.0727,1.868,11111222 
TCOON,ioos:station:TCOON:009:1,2019-11-02T00:18:00Z,27.8398,-97.0727,1.899,11111222 
TCOON,ioos:station:TCOON:009:1,2019-11-02T01:18:00Z,27.8398,-97.0727,1.937,11111222 
TCOON,ioos:station:TCOON:009:1,2019-11-02T02:18:00Z,27.8398,-97.0727,1.95,11111222 
TCOON,ioos:station:TCOON:009:1,2019-11-02T03:18:00Z,27.8398,-97.0727,1.99,11111222 
TCOON,ioos:station:TCOON:009:1,2019-11-02T04:18:00Z,27.8398,-97.0727,1.981,11111222 
TCOON,ioos:station:TCOON:009:1,2019-11-02T05:18:00Z,27.8398,-97.0727,1.997,11111222 
TCOON,ioos:station:TCOON:009:1,2019-11-02T06:18:00Z,27.8398,-97.0727,1.999,11111222 
TCOON,ioos:station:TCOON:009:1,2019-11-02T07:18:00Z,27.8398,-97.0727,1.999,11111222 
TCOON,ioos:station:TCOON:009:1,2019-11-02T08:18:00Z,27.8398,-97.0727,2.006,11111222 
TCOON,ioos:station:TCOON:009:1,2019-11-02T09:18:00Z,27.8398,-97.0727,1.988,11111222 
TCOON,ioos:station:TCOON:009:1,2019-11-02T10:18:00Z,27.8398,-97.0727,1.979,11111222 
TCOON,ioos:station:TCOON:009:1,2019-11-02T11:18:00Z,27.8398,-97.0727,1.962,11111222 
TCOON,ioos:station:TCOON:009:1,2019-11-02T12:18:00Z,27.8398,-97.0727,1.928,11111222 
TCOON,ioos:station:TCOON:009:1,2019-11-02T13:18:00Z,27.8398,-97.0727,1.864,11111222 
TCOON,ioos:station:TCOON:009:1,2019-11-02T14:18:00Z,27.8398,-97.0727,1.805,11111222 
TCOON,ioos:station:TCOON:009:1,2019-11-02T15:18:00Z,27.8398,-97.0727,1.71,11111222 
TCOON,ioos:station:TCOON:009:1,2019-11-02T16:18:00Z,27.8398,-97.0727,1.701,11111222 
TCOON,ioos:station:TCOON:009:1,2019-11-02T17:18:00Z,27.8398,-97.0727,1.649,11111222 
TCOON,ioos:station:TCOON:009:1,2019-11-02T18:18:00Z,27.8398,-97.0727,1.637,11111222 
TCOON,ioos:station:TCOON:009:1,2019-11-02T19:18:00Z,27.8398,-97.0727,1.636,11111222 
TCOON,ioos:station:TCOON:009:1,2019-11-02T20:18:00Z,27.8398,-97.0727,1.672,11111222 
TCOON,ioos:station:TCOON:009:1,2019-11-02T21:18:00Z,27.8398,-97.0727,1.732,11111222 
TCOON,ioos:station:TCOON:009:1,2019-11-02T22:18:00Z,27.8398,-97.0727,1.766,11111222 
TCOON,ioos:station:TCOON:009:1,2019-11-02T23:18:00Z,27.8398,-97.0727,1.826,11111222 
TCOON,ioos:station:TCOON:009:1,2019-11-03T00:18:00Z,27.8398,-97.0727,1.853,11111222 
TCOON,ioos:station:TCOON:009:1,2019-11-03T01:18:00Z,27.8398,-97.0727,1.902,11111222 
TCOON,ioos:station:TCOON:009:1,2019-11-03T02:18:00Z,27.8398,-97.0727,1.933,11111222 
TCOON,ioos:station:TCOON:009:1,2019-11-03T03:18:00Z,27.8398,-97.0727,1.945,11111222 
TCOON,ioos:station:TCOON:009:1,2019-11-03T04:18:00Z,27.8398,-97.0727,1.957,11111222 
TCOON,ioos:station:TCOON:009:1,2019-11-03T05:18:00Z,27.8398,-97.0727,1.963,11111222 
TCOON,ioos:station:TCOON:009:1,2019-11-03T06:18:00Z,27.8398,-97.0727,1.972,11111222 
TCOON,ioos:station:TCOON:009:1,2019-11-03T07:18:00Z,27.8398,-97.0727,1.954,11111222 
TCOON,ioos:station:TCOON:009:1,2019-11-03T08:18:00Z,27.8398,-97.0727,1.953,11111222 
TCOON,ioos:station:TCOON:009:1,2019-11-03T09:18:00Z,27.8398,-97.0727,1.955,11111222 
TCOON,ioos:station:TCOON:009:1,2019-11-03T10:18:00Z,27.8398,-97.0727,1.947,11111222 
TCOON,ioos:station:TCOON:009:1,2019-11-03T11:18:00Z,27.8398,-97.0727,1.938,11111222 
TCOON,ioos:station:TCOON:009:1,2019-11-03T12:18:00Z,27.8398,-97.0727,1.915,11111222 
TCOON,ioos:station:TCOON:009:1,2019-11-03T13:18:00Z,27.8398,-97.0727,1.887,11111222 
TCOON,ioos:station:TCOON:009:1,2019-11-03T14:18:00Z,27.8398,-97.0727,1.864,11111222 
TCOON,ioos:station:TCOON:009:1,2019-11-03T15:18:00Z,27.8398,-97.0727,1.808,11111222 
TCOON,ioos:station:TCOON:009:1,2019-11-03T16:18:00Z,27.8398,-97.0727,1.771,11111222 
TCOON,ioos:station:TCOON:009:1,2019-11-03T17:18:00Z,27.8398,-97.0727,1.736,11111222 
TCOON,ioos:station:TCOON:009:1,2019-11-03T18:18:00Z,27.8398,-97.0727,1.712,11111222 
TCOON,ioos:station:TCOON:009:1,2019-11-03T19:18:00Z,27.8398,-97.0727,1.737,11111222 
TCOON,ioos:station:TCOON:009:1,2019-11-03T20:18:00Z,27.8398,-97.0727,1.72,11111222 
TCOON,ioos:station:TCOON:009:1,2019-11-03T21:18:00Z,27.8398,-97.0727,1.752,11111222 
TCOON,ioos:station:TCOON:009:1,2019-11-03T22:18:00Z,27.8398,-97.0727,1.805,11111222 
TCOON,ioos:station:TCOON:009:1,2019-11-03T23:18:00Z,27.8398,-97.0727,1.743,11111222 
TCOON,ioos:station:TCOON:009:1,2019-11-04T00:18:00Z,27.8398,-97.0727,1.872,11111222 
TCOON,ioos:station:TCOON:009:1,2019-11-04T01:18:00Z,27.8398,-97.0727,1.912,11111222 
TCOON,ioos:station:TCOON:009:1,2019-11-04T02:18:00Z,27.8398,-97.0727,1.943,11111222 
TCOON,ioos:station:TCOON:009:1,2019-11-04T03:18:00Z,27.8398,-97.0727,1.957,11111222 
TCOON,ioos:station:TCOON:009:1,2019-11-04T04:18:00Z,27.8398,-97.0727,1.981,11111222 
TCOON,ioos:station:TCOON:009:1,2019-11-04T05:18:00Z,27.8398,-97.0727,1.987,11111222 
TCOON,ioos:station:TCOON:009:1,2019-11-04T15:54:00Z,27.8398,-97.0727,1.861,11111222 
TCOON,ioos:station:TCOON:009:1,2019-11-04T16:18:00Z,27.8398,-97.0727,1.836,11111222 
TCOON,ioos:station:TCOON:009:1,2019-11-04T17:18:00Z,27.8398,-97.0727,1.807,11111222 
TCOON,ioos:station:TCOON:009:1,2019-11-04T18:18:00Z,27.8398,-97.0727,1.79,11111222 
TCOON,ioos:station:TCOON:009:1,2019-11-04T19:18:00Z,27.8398,-97.0727,1.77,11111222 
TCOON,ioos:station:TCOON:009:1,2019-11-04T20:18:00Z,27.8398,-97.0727,1.775,11111222 
TCOON,ioos:station:TCOON:009:1,2019-11-04T21:18:00Z,27.8398,-97.0727,1.759,11111222 
TCOON,ioos:station:TCOON:009:1,2019-11-04T22:18:00Z,27.8398,-97.0727,1.781,11111222 
TCOON,ioos:station:TCOON:009:1,2019-11-04T23:18:00Z,27.8398,-97.0727,1.787,11111222 
TCOON,ioos:station:TCOON:009:1,2019-11-05T00:18:00Z,27.8398,-97.0727,1.833,11111222 
TCOON,ioos:station:TCOON:009:1,2019-11-05T01:18:00Z,27.8398,-97.0727,1.869,11111222 
TCOON,ioos:station:TCOON:009:1,2019-11-05T02:18:00Z,27.8398,-97.0727,1.887,11111222 
TCOON,ioos:station:TCOON:009:1,2019-11-05T03:18:00Z,27.8398,-97.0727,1.937,11111222 
TCOON,ioos:station:TCOON:009:1,2019-11-05T04:18:00Z,27.8398,-97.0727,1.958,11111222 
TCOON,ioos:station:TCOON:009:1,2019-11-05T05:18:00Z,27.8398,-97.0727,1.997,11111222 
TCOON,ioos:station:TCOON:009:1,2019-11-05T06:18:00Z,27.8398,-97.0727,1.983,11111222 
TCOON,ioos:station:TCOON:009:1,2019-11-05T07:18:00Z,27.8398,-97.0727,1.993,11111222 
TCOON,ioos:station:TCOON:009:1,2019-11-05T08:18:00Z,27.8398,-97.0727,1.984,11111222 
TCOON,ioos:station:TCOON:009:1,2019-11-05T09:18:00Z,27.8398,-97.0727,2.009,11111222 
TCOON,ioos:station:TCOON:009:1,2019-11-05T10:18:00Z,27.8398,-97.0727,1.984,11111222 
TCOON,ioos:station:TCOON:009:1,2019-11-05T11:18:00Z,27.8398,-97.0727,1.982,11111222 
TCOON,ioos:station:TCOON:009:1,2019-11-05T12:18:00Z,27.8398,-97.0727,1.968,11111222 
TCOON,ioos:station:TCOON:009:1,2019-11-05T13:18:00Z,27.8398,-97.0727,1.945,11111222 
TCOON,ioos:station:TCOON:009:1,2019-11-05T14:18:00Z,27.8398,-97.0727,1.959,11111222 
TCOON,ioos:station:TCOON:009:1,2019-11-05T15:18:00Z,27.8398,-97.0727,1.932,11111222 
TCOON,ioos:station:TCOON:009:1,2019-11-05T16:18:00Z,27.8398,-97.0727,1.914,11111222 
TCOON,ioos:station:TCOON:009:1,2019-11-05T17:18:00Z,27.8398,-97.0727,1.886,11111222 
TCOON,ioos:station:TCOON:009:1,2019-11-05T18:18:00Z,27.8398,-97.0727,1.852,11111222 
TCOON,ioos:station:TCOON:009:1,2019-11-05T19:18:00Z,27.8398,-97.0727,1.828,11111222 
TCOON,ioos:station:TCOON:009:1,2019-11-05T20:18:00Z,27.8398,-97.0727,1.808,11111222 
TCOON,ioos:station:TCOON:009:1,2019-11-05T21:18:00Z,27.8398,-97.0727,1.764,11111222 
TCOON,ioos:station:TCOON:009:1,2019-11-05T22:18:00Z,27.8398,-97.0727,1.764,11111222 
TCOON,ioos:station:TCOON:009:1,2019-11-05T23:18:00Z,27.8398,-97.0727,1.762,11111222 
TCOON,ioos:station:TCOON:009:1,2019-11-06T00:18:00Z,27.8398,-97.0727,1.768,11111222 
TCOON,ioos:station:TCOON:009:1,2019-11-06T01:18:00Z,27.8398,-97.0727,1.785,11111222 
TCOON,ioos:station:TCOON:009:1,2019-11-06T02:18:00Z,27.8398,-97.0727,1.816,11111222 
TCOON,ioos:station:TCOON:009:1,2019-11-06T03:18:00Z,27.8398,-97.0727,1.864,11111222 
TCOON,ioos:station:TCOON:009:1,2019-11-06T04:18:00Z,27.8398,-97.0727,1.91,11111222 
TCOON,ioos:station:TCOON:009:1,2019-11-06T05:18:00Z,27.8398,-97.0727,1.927,11111222 
TCOON,ioos:station:TCOON:009:1,2019-11-06T06:18:00Z,27.8398,-97.0727,1.912,11111222 
TCOON,ioos:station:TCOON:009:1,2019-11-06T07:18:00Z,27.8398,-97.0727,1.929,11111222 
TCOON,ioos:station:TCOON:009:1,2019-11-06T08:18:00Z,27.8398,-97.0727,1.914,11111222 
TCOON,ioos:station:TCOON:009:1,2019-11-06T09:18:00Z,27.8398,-97.0727,1.9,11111222 
TCOON,ioos:station:TCOON:009:1,2019-11-06T10:18:00Z,27.8398,-97.0727,1.897,11111222 
TCOON,ioos:station:TCOON:009:1,2019-11-06T11:18:00Z,27.8398,-97.0727,1.874,11111222 
TCOON,ioos:station:TCOON:009:1,2019-11-06T12:18:00Z,27.8398,-97.0727,1.865,11111222 
TCOON,ioos:station:TCOON:009:1,2019-11-06T13:18:00Z,27.8398,-97.0727,1.852,11111222 
TCOON,ioos:station:TCOON:009:1,2019-11-06T14:18:00Z,27.8398,-97.0727,1.854,11111222 
TCOON,ioos:station:TCOON:009:1,2019-11-06T15:18:00Z,27.8398,-97.0727,1.736,11111222 
TCOON,ioos:station:TCOON:009:1,2019-11-06T16:18:00Z,27.8398,-97.0727,1.883,11111222 
TCOON,ioos:station:TCOON:009:1,2019-11-06T17:18:00Z,27.8398,-97.0727,1.856,11111222 
TCOON,ioos:station:TCOON:009:1,2019-11-06T18:18:00Z,27.8398,-97.0727,1.849,11111222 
TCOON,ioos:station:TCOON:009:1,2019-11-06T19:18:00Z,27.8398,-97.0727,1.839,11111222 
TCOON,ioos:station:TCOON:009:1,2019-11-06T20:18:00Z,27.8398,-97.0727,1.809,11111222 
TCOON,ioos:station:TCOON:009:1,2019-11-06T21:18:00Z,27.8398,-97.0727,1.815,11111222 
TCOON,ioos:station:TCOON:009:1,2019-11-06T22:18:00Z,27.8398,-97.0727,1.832,11111222 
TCOON,ioos:station:TCOON:009:1,2019-11-06T23:18:00Z,27.8398,-97.0727,1.794,11111222 
TCOON,ioos:station:TCOON:009:1,2019-11-07T00:18:00Z,27.8398,-97.0727,1.805,11111222 
TCOON,ioos:station:TCOON:009:1,2019-11-07T01:18:00Z,27.8398,-97.0727,1.838,11111222 
TCOON,ioos:station:TCOON:009:1,2019-11-07T02:18:00Z,27.8398,-97.0727,1.875,11111222 
TCOON,ioos:station:TCOON:009:1,2019-11-07T03:18:00Z,27.8398,-97.0727,1.918,11111222 
TCOON,ioos:station:TCOON:009:1,2019-11-07T04:18:00Z,27.8398,-97.0727,1.952,11111222 
TCOON,ioos:station:TCOON:009:1,2019-11-07T05:18:00Z,27.8398,-97.0727,1.956,11111222 
TCOON,ioos:station:TCOON:009:1,2019-11-07T06:18:00Z,27.8398,-97.0727,1.969,11111222 
TCOON,ioos:station:TCOON:009:1,2019-11-07T07:24:00Z,27.8398,-97.0727,1.974,11111222 
TCOON,ioos:station:TCOON:009:1,2019-11-07T08:18:00Z,27.8398,-97.0727,1.948,11111222 
TCOON,ioos:station:TCOON:009:1,2019-11-07T09:18:00Z,27.8398,-97.0727,1.962,11111222 
TCOON,ioos:station:TCOON:009:1,2019-11-07T10:18:00Z,27.8398,-97.0727,1.951,11111222 
TCOON,ioos:station:TCOON:009:1,2019-11-07T11:18:00Z,27.8398,-97.0727,1.943,11111222 
TCOON,ioos:station:TCOON:009:1,2019-11-07T12:18:00Z,27.8398,-97.0727,1.936,11111222 
TCOON,ioos:station:TCOON:009:1,2019-11-07T13:18:00Z,27.8398,-97.0727,1.92,11111222 
TCOON,ioos:station:TCOON:009:1,2019-11-07T14:18:00Z,27.8398,-97.0727,1.91,11111222 
TCOON,ioos:station:TCOON:009:1,2019-11-07T15:18:00Z,27.8398,-97.0727,1.955,11111222 
TCOON,ioos:station:TCOON:009:1,2019-11-07T16:18:00Z,27.8398,-97.0727,1.929,11111222 
TCOON,ioos:station:TCOON:009:1,2019-11-07T17:18:00Z,27.8398,-97.0727,1.954,11111222 
TCOON,ioos:station:TCOON:009:1,2019-11-07T18:18:00Z,27.8398,-97.0727,1.922,11111222 
TCOON,ioos:station:TCOON:009:1,2019-11-07T19:18:00Z,27.8398,-97.0727,1.882,11111222 
TCOON,ioos:station:TCOON:009:1,2019-11-07T20:18:00Z,27.8398,-97.0727,1.88,11111222 
TCOON,ioos:station:TCOON:009:1,2019-11-07T21:18:00Z,27.8398,-97.0727,1.901,11111222 
TCOON,ioos:station:TCOON:009:1,2019-11-07T22:18:00Z,27.8398,-97.0727,1.844,11111222 
TCOON,ioos:station:TCOON:009:1,2019-11-07T23:18:00Z,27.8398,-97.0727,1.84,11111222 
TCOON,ioos:station:TCOON:009:1,2019-11-08T00:18:00Z,27.8398,-97.0727,1.787,11111222 
TCOON,ioos:station:TCOON:009:1,2019-11-08T01:18:00Z,27.8398,-97.0727,1.791,11111222 
TCOON,ioos:station:TCOON:009:1,2019-11-08T02:18:00Z,27.8398,-97.0727,1.788,11111222 
TCOON,ioos:station:TCOON:009:1,2019-11-08T03:18:00Z,27.8398,-97.0727,1.844,11111222 
TCOON,ioos:station:TCOON:009:1,2019-11-08T04:18:00Z,27.8398,-97.0727,1.876,11111222 
TCOON,ioos:station:TCOON:009:1,2019-11-08T05:18:00Z,27.8398,-97.0727,1.963,11111222 
TCOON,ioos:station:TCOON:009:1,2019-11-08T06:18:00Z,27.8398,-97.0727,1.939,11111222 
TCOON,ioos:station:TCOON:009:1,2019-11-08T07:18:00Z,27.8398,-97.0727,1.919,11111222 
TCOON,ioos:station:TCOON:009:1,2019-11-08T08:18:00Z,27.8398,-97.0727,1.906,11111222 
TCOON,ioos:station:TCOON:009:1,2019-11-08T09:18:00Z,27.8398,-97.0727,1.883,11111222 
TCOON,ioos:station:TCOON:009:1,2019-11-08T10:18:00Z,27.8398,-97.0727,1.919,11111222 
TCOON,ioos:station:TCOON:009:1,2019-11-08T11:18:00Z,27.8398,-97.0727,1.906,11111222 
TCOON,ioos:station:TCOON:009:1,2019-11-08T12:18:00Z,27.8398,-97.0727,1.869,11111222 
TCOON,ioos:station:TCOON:009:1,2019-11-08T13:18:00Z,27.8398,-97.0727,1.857,11111222 
TCOON,ioos:station:TCOON:009:1,2019-11-08T14:18:00Z,27.8398,-97.0727,1.853,11111222 
TCOON,ioos:station:TCOON:009:1,2019-11-08T15:18:00Z,27.8398,-97.0727,1.92,11111222 
TCOON,ioos:station:TCOON:009:1,2019-11-08T16:18:00Z,27.8398,-97.0727,1.836,11111222 
TCOON,ioos:station:TCOON:009:1,2019-11-08T17:18:00Z,27.8398,-97.0727,1.927,11111222 
TCOON,ioos:station:TCOON:009:1,2019-11-08T18:18:00Z,27.8398,-97.0727,1.917,11111222 
TCOON,ioos:station:TCOON:009:1,2019-11-08T19:18:00Z,27.8398,-97.0727,1.927,11111222 
TCOON,ioos:station:TCOON:009:1,2019-11-08T20:18:00Z,27.8398,-97.0727,1.917,11111222 
TCOON,ioos:station:TCOON:009:1,2019-11-08T21:18:00Z,27.8398,-97.0727,1.915,11111222 
TCOON,ioos:station:TCOON:009:1,2019-11-08T22:18:00Z,27.8398,-97.0727,1.914,11111222 
TCOON,ioos:station:TCOON:009:1,2019-11-08T23:18:00Z,27.8398,-97.0727,1.881,11111222 
TCOON,ioos:station:TCOON:009:1,2019-11-09T00:18:00Z,27.8398,-97.0727,1.835,11111222 
TCOON,ioos:station:TCOON:009:1,2019-11-09T01:18:00Z,27.8398,-97.0727,1.829,11111222 
TCOON,ioos:station:TCOON:009:1,2019-11-09T02:18:00Z,27.8398,-97.0727,1.844,11111222 
TCOON,ioos:station:TCOON:009:1,2019-11-09T03:18:00Z,27.8398,-97.0727,1.842,11111222 
TCOON,ioos:station:TCOON:009:1,2019-11-09T04:18:00Z,27.8398,-97.0727,1.858,11111222 
TCOON,ioos:station:TCOON:009:1,2019-11-09T05:18:00Z,27.8398,-97.0727,1.934,11111222 
TCOON,ioos:station:TCOON:009:1,2019-11-09T06:18:00Z,27.8398,-97.0727,1.918,11111222 
TCOON,ioos:station:TCOON:009:1,2019-11-09T07:18:00Z,27.8398,-97.0727,1.881,11111222 
TCOON,ioos:station:TCOON:009:1,2019-11-09T08:18:00Z,27.8398,-97.0727,1.9,11111222 
TCOON,ioos:station:TCOON:009:1,2019-11-09T09:18:00Z,27.8398,-97.0727,1.867,11111222 
TCOON,ioos:station:TCOON:009:1,2019-11-09T10:18:00Z,27.8398,-97.0727,1.846,11111222 
TCOON,ioos:station:TCOON:009:1,2019-11-09T11:18:00Z,27.8398,-97.0727,1.825,11111222 
TCOON,ioos:station:TCOON:009:1,2019-11-09T12:18:00Z,27.8398,-97.0727,1.792,11111222 
TCOON,ioos:station:TCOON:009:1,2019-11-09T13:18:00Z,27.8398,-97.0727,1.789,11111222 
TCOON,ioos:station:TCOON:009:1,2019-11-09T14:18:00Z,27.8398,-97.0727,1.779,11111222 
TCOON,ioos:station:TCOON:009:1,2019-11-09T15:18:00Z,27.8398,-97.0727,1.832,11111222 
TCOON,ioos:station:TCOON:009:1,2019-11-09T16:18:00Z,27.8398,-97.0727,1.84,11111222 
TCOON,ioos:station:TCOON:009:1,2019-11-09T17:18:00Z,27.8398,-97.0727,1.892,11111222 
TCOON,ioos:station:TCOON:009:1,2019-11-09T18:18:00Z,27.8398,-97.0727,1.912,11111222 
TCOON,ioos:station:TCOON:009:1,2019-11-09T19:18:00Z,27.8398,-97.0727,1.912,11111222 
TCOON,ioos:station:TCOON:009:1,2019-11-09T20:18:00Z,27.8398,-97.0727,1.928,11111222 
TCOON,ioos:station:TCOON:009:1,2019-11-09T21:18:00Z,27.8398,-97.0727,1.927,11111222 
TCOON,ioos:station:TCOON:009:1,2019-11-09T22:18:00Z,27.8398,-97.0727,1.925,11111222 
TCOON,ioos:station:TCOON:009:1,2019-11-09T23:18:00Z,27.8398,-97.0727,1.92,11111222 
TCOON,ioos:station:TCOON:009:1,2019-11-10T00:18:00Z,27.8398,-97.0727,1.899,11111222 
TCOON,ioos:station:TCOON:009:1,2019-11-10T01:18:00Z,27.8398,-97.0727,1.895,11111222 
TCOON,ioos:station:TCOON:009:1,2019-11-10T02:18:00Z,27.8398,-97.0727,1.895,11111222 
TCOON,ioos:station:TCOON:009:1,2019-11-10T03:18:00Z,27.8398,-97.0727,1.91,11111222 
TCOON,ioos:station:TCOON:009:1,2019-11-10T04:18:00Z,27.8398,-97.0727,1.92,11111222 
TCOON,ioos:station:TCOON:009:1,2019-11-10T05:18:00Z,27.8398,-97.0727,1.934,11111222 
TCOON,ioos:station:TCOON:009:1,2019-11-10T06:18:00Z,27.8398,-97.0727,1.955,11111222 
TCOON,ioos:station:TCOON:009:1,2019-11-10T07:18:00Z,27.8398,-97.0727,1.945,11111222 
TCOON,ioos:station:TCOON:009:1,2019-11-10T08:18:00Z,27.8398,-97.0727,1.935,11111222 
TCOON,ioos:station:TCOON:009:1,2019-11-10T09:18:00Z,27.8398,-97.0727,1.915,11111222 
TCOON,ioos:station:TCOON:009:1,2019-11-10T10:18:00Z,27.8398,-97.0727,1.871,11111222 
TCOON,ioos:station:TCOON:009:1,2019-11-10T11:18:00Z,27.8398,-97.0727,1.819,11111222 
TCOON,ioos:station:TCOON:009:1,2019-11-10T12:18:00Z,27.8398,-97.0727,1.791,11111222 
TCOON,ioos:station:TCOON:009:1,2019-11-10T13:18:00Z,27.8398,-97.0727,1.804,11111222 
TCOON,ioos:station:TCOON:009:1,2019-11-10T14:18:00Z,27.8398,-97.0727,1.777,11111222 
TCOON,ioos:station:TCOON:009:1,2019-11-10T15:18:00Z,27.8398,-97.0727,1.794,11111222 
TCOON,ioos:station:TCOON:009:1,2019-11-10T16:18:00Z,27.8398,-97.0727,1.845,11111222 
TCOON,ioos:station:TCOON:009:1,2019-11-10T17:18:00Z,27.8398,-97.0727,1.892,11111222 
TCOON,ioos:station:TCOON:009:1,2019-11-10T18:18:00Z,27.8398,-97.0727,1.943,11111222 
TCOON,ioos:station:TCOON:009:1,2019-11-10T19:18:00Z,27.8398,-97.0727,1.959,11111222 
TCOON,ioos:station:TCOON:009:1,2019-11-10T20:18:00Z,27.8398,-97.0727,1.98,11111222 
TCOON,ioos:station:TCOON:009:1,2019-11-10T21:18:00Z,27.8398,-97.0727,1.986,11111222 
TCOON,ioos:station:TCOON:009:1,2019-11-10T22:18:00Z,27.8398,-97.0727,1.956,11111222 
TCOON,ioos:station:TCOON:009:1,2019-11-10T23:18:00Z,27.8398,-97.0727,1.955,11111222 
TCOON,ioos:station:TCOON:009:1,2019-11-11T00:18:00Z,27.8398,-97.0727,1.954,11111222 
TCOON,ioos:station:TCOON:009:1,2019-11-11T01:18:00Z,27.8398,-97.0727,1.934,11111222 
TCOON,ioos:station:TCOON:009:1,2019-11-11T02:18:00Z,27.8398,-97.0727,1.934,11111222 
TCOON,ioos:station:TCOON:009:1,2019-11-11T03:18:00Z,27.8398,-97.0727,1.944,11111222 
TCOON,ioos:station:TCOON:009:1,2019-11-11T04:18:00Z,27.8398,-97.0727,1.951,11111222 
TCOON,ioos:station:TCOON:009:1,2019-11-11T05:18:00Z,27.8398,-97.0727,1.962,11111222 
TCOON,ioos:station:TCOON:009:1,2019-11-11T06:18:00Z,27.8398,-97.0727,1.974,11111222 
TCOON,ioos:station:TCOON:009:1,2019-11-11T07:18:00Z,27.8398,-97.0727,1.965,11111222 
TCOON,ioos:station:TCOON:009:1,2019-11-11T08:18:00Z,27.8398,-97.0727,1.953,11111222 
TCOON,ioos:station:TCOON:009:1,2019-11-11T09:18:00Z,27.8398,-97.0727,1.919,11111222 
TCOON,ioos:station:TCOON:009:1,2019-11-11T10:18:00Z,27.8398,-97.0727,1.879,11111222 
TCOON,ioos:station:TCOON:009:1,2019-11-11T11:18:00Z,27.8398,-97.0727,1.818,11111222 
TCOON,ioos:station:TCOON:009:1,2019-11-11T12:18:00Z,27.8398,-97.0727,1.777,11111222 
TCOON,ioos:station:TCOON:009:1,2019-11-11T13:18:00Z,27.8398,-97.0727,1.777,11111222 
TCOON,ioos:station:TCOON:009:1,2019-11-11T14:18:00Z,27.8398,-97.0727,1.753,11111222 
TCOON,ioos:station:TCOON:009:1,2019-11-11T15:18:00Z,27.8398,-97.0727,1.769,11111222 
TCOON,ioos:station:TCOON:009:1,2019-11-11T16:18:00Z,27.8398,-97.0727,1.829,11111222 
TCOON,ioos:station:TCOON:009:1,2019-11-11T17:18:00Z,27.8398,-97.0727,1.869,11111222 
TCOON,ioos:station:TCOON:009:1,2019-11-11T18:18:00Z,27.8398,-97.0727,1.916,11111222 
TCOON,ioos:station:TCOON:009:1,2019-11-11T19:18:00Z,27.8398,-97.0727,1.967,11111222 
TCOON,ioos:station:TCOON:009:1,2019-11-11T20:18:00Z,27.8398,-97.0727,1.975,11111222 
TCOON,ioos:station:TCOON:009:1,2019-11-11T21:18:00Z,27.8398,-97.0727,1.998,11111222 
TCOON,ioos:station:TCOON:009:1,2019-11-11T22:18:00Z,27.8398,-97.0727,1.983,11111222 
TCOON,ioos:station:TCOON:009:1,2019-11-11T23:18:00Z,27.8398,-97.0727,1.96,11111222 
TCOON,ioos:station:TCOON:009:1,2019-11-12T00:18:00Z,27.8398,-97.0727,2.025,11111222 
TCOON,ioos:station:TCOON:009:1,2019-11-12T01:18:00Z,27.8398,-97.0727,1.941,11111222 
TCOON,ioos:station:TCOON:009:1,2019-11-12T02:18:00Z,27.8398,-97.0727,1.866,11111222 
TCOON,ioos:station:TCOON:009:1,2019-11-12T03:18:00Z,27.8398,-97.0727,1.861,11111222 
TCOON,ioos:station:TCOON:009:1,2019-11-12T04:18:00Z,27.8398,-97.0727,1.86,11111222 
TCOON,ioos:station:TCOON:009:1,2019-11-12T05:18:00Z,27.8398,-97.0727,1.849,11111222 
TCOON,ioos:station:TCOON:009:1,2019-11-12T06:18:00Z,27.8398,-97.0727,1.917,11111222 
TCOON,ioos:station:TCOON:009:1,2019-11-12T07:18:00Z,27.8398,-97.0727,1.877,11111222 
TCOON,ioos:station:TCOON:009:1,2019-11-12T08:18:00Z,27.8398,-97.0727,1.839,11111222 
TCOON,ioos:station:TCOON:009:1,2019-11-12T09:18:00Z,27.8398,-97.0727,1.769,11111222 
TCOON,ioos:station:TCOON:009:1,2019-11-12T10:18:00Z,27.8398,-97.0727,1.745,11111222 
TCOON,ioos:station:TCOON:009:1,2019-11-12T11:18:00Z,27.8398,-97.0727,1.736,11111222 
TCOON,ioos:station:TCOON:009:1,2019-11-12T12:18:00Z,27.8398,-97.0727,1.647,11111222 
TCOON,ioos:station:TCOON:009:1,2019-11-12T13:18:00Z,27.8398,-97.0727,1.587,11111222 
TCOON,ioos:station:TCOON:009:1,2019-11-12T14:18:00Z,27.8398,-97.0727,1.59,11111222 
TCOON,ioos:station:TCOON:009:1,2019-11-12T15:18:00Z,27.8398,-97.0727,1.623,11111222 
TCOON,ioos:station:TCOON:009:1,2019-11-12T16:18:00Z,27.8398,-97.0727,1.661,11111222 
TCOON,ioos:station:TCOON:009:1,2019-11-12T17:18:00Z,27.8398,-97.0727,1.669,11111222 
TCOON,ioos:station:TCOON:009:1,2019-11-12T18:18:00Z,27.8398,-97.0727,1.691,11111222 
TCOON,ioos:station:TCOON:009:1,2019-11-12T19:18:00Z,27.8398,-97.0727,1.81,11111222 
TCOON,ioos:station:TCOON:009:1,2019-11-12T20:18:00Z,27.8398,-97.0727,1.803,11111222 
TCOON,ioos:station:TCOON:009:1,2019-11-12T21:18:00Z,27.8398,-97.0727,1.783,11111222 
TCOON,ioos:station:TCOON:009:1,2019-11-12T22:18:00Z,27.8398,-97.0727,1.879,11111222 
TCOON,ioos:station:TCOON:009:1,2019-11-12T23:18:00Z,27.8398,-97.0727,1.897,11111222 
TCOON,ioos:station:TCOON:009:1,2019-11-13T00:18:00Z,27.8398,-97.0727,1.867,11111222 
TCOON,ioos:station:TCOON:009:1,2019-11-13T01:18:00Z,27.8398,-97.0727,1.865,11111222 